Flint, MI

5:37 PM EST on November 20, 2018 (GMT -0500)
Bishop International

Weather History for KFNT - September, 2018

Change the Weather History Date:

Friday, September 14, 2018

  Actual Average Record
Temperature  
Mean Temperature 72 °F 62 °F  
Max Temperature 81 °F 73 °F 98 °F (1939)
Min Temperature 63 °F 51 °F 33 °F (1963)
Degree Days  
Heating Degree Days 0 5  
Month to date heating degree days 21 44  
Since 1 July heating degree days 25 88  
Cooling Degree Days 7 2  
Month to date cooling degree days 70 33  
Year to date cooling degree days 727 510  
Growing Degree Days 22 (Base 50)    
Moisture  
Dew Point 65 °F    
Average Humidity 79    
Maximum Humidity 100    
Minimum Humidity 58    
Precipitation  
Precipitation 0.00 in 0.13 in 2.63 in (2008)
Month to date precipitation 1.63 1.71  
Year to date precipitation 27.12 22.27  
Snow  
Snow 0.00 in 0.00 in 0.00 in ()
Month to date snowfall 0.0 0.0  
Since 1 July snowfall 0.0 0.0  
Since 1 September snowfall 0.0 0.0  
Snow Depth 0.00 in    
Sea Level Pressure  
Sea Level Pressure 30.17 in    
Wind  
Wind Speed 2 mph (NNE)    
Max Wind Speed 12 mph    
Max Gust Speed 14 mph    
Visibility 4 miles    
Events Fog    
T = Trace of Precipitation, MM = Missing Value Source: NWS Daily Summary

Daily Weather History Graph

Daily Weather History Graph

Search for Another Location

Airport or City:

Astronomy

Sep. 14, 2018 Rise Set
Actual Time 7:13 AM EDT 7:46 PM EDT
Civil Twilight 6:45 AM EDT 8:15 PM EDT
Nautical Twilight 6:11 AM EDT 8:48 PM EDT
Astronomical Twilight 5:36 AM EDT 9:23 PM EDT
Moon 12:35 PM EDT (9/14) 10:57 PM EDT (9/14)
Length of Visible Light 13h 30m
Length of Day
12h 33m
Waxing Crescent, 28% of the Moon is Illuminated
Sep 14
Waxing Crescent
Sep 16
First Quarter
Sep 24
Full
Oct 2
Last Quarter
Oct 8
New

Hourly Weather History & Observations

Time (EDT) Temp. Heat Index Dew Point Humidity Pressure Visibility Wind Dir Wind Speed Gust Speed Precip Events Conditions
12:00 AM 63.0 °F - 62.1 °F 97% 30.17 in 0.5 mi Calm Calm - N/A Fog Shallow Fog
12:12 AM 64.9 °F - 64.0 °F 97% 30.17 in 1.5 mi Calm Calm - N/A Fog Shallow Fog
12:14 AM 64.9 °F - 64.0 °F 97% 30.17 in 3.0 mi Calm Calm - N/A Fog Shallow Fog
12:21 AM 62.1 °F - 62.1 °F 100% 30.17 in 1.8 mi Calm Calm - N/A Fog Shallow Fog
12:28 AM 64.9 °F - 63.0 °F 93% 30.17 in 2.0 mi Calm Calm - N/A Fog Shallow Fog
12:38 AM 64.9 °F - 63.0 °F 93% 30.17 in 3.0 mi Calm Calm - N/A Fog Shallow Fog
12:46 AM 64.0 °F - 63.0 °F 96% 30.17 in 3.0 mi Calm Calm - N/A Fog Shallow Fog
12:49 AM 64.4 °F - 62.6 °F 94% 30.17 in 1.8 mi Calm Calm - N/A Fog Shallow Fog
12:53 AM 64.9 °F - 64.0 °F 97% 30.17 in 1.8 mi Calm Calm - N/A Fog Shallow Fog
12:59 AM 66.0 °F - 64.9 °F 96% 30.17 in 3.0 mi Calm Calm - N/A Fog Shallow Fog
1:40 AM 64.0 °F - 63.0 °F 96% 30.17 in 4.0 mi Calm Calm - N/A Fog Shallow Fog
1:50 AM 64.4 °F - 62.6 °F 94% 30.17 in 5.0 mi Calm Calm - N/A Fog Shallow Fog
1:53 AM 64.0 °F - 63.0 °F 96% 30.17 in 4.0 mi Calm Calm - N/A Fog Shallow Fog
2:00 AM 64.0 °F - 63.0 °F 96% 30.17 in 1.8 mi Calm Calm - N/A Fog Shallow Fog
2:09 AM 64.9 °F - 64.0 °F 97% 30.17 in 0.5 mi Calm Calm - N/A Fog Shallow Fog
2:32 AM 66.0 °F - 64.9 °F 96% 30.16 in 1.0 mi Calm Calm - N/A Fog Shallow Fog
2:53 AM 66.0 °F - 64.9 °F 96% 30.15 in 2.0 mi Calm Calm - N/A Fog Shallow Fog
3:03 AM 66.0 °F - 64.9 °F 96% 30.16 in 3.0 mi Calm Calm - N/A Fog Shallow Fog
3:10 AM 66.0 °F - 64.9 °F 96% 30.16 in 2.5 mi Calm Calm - N/A Fog Shallow Fog
3:19 AM 66.0 °F - 64.9 °F 96% 30.16 in 1.2 mi Calm Calm - N/A Fog Shallow Fog
3:29 AM 66.9 °F - 66.0 °F 97% 30.16 in 3.0 mi NNE 3.5 mph - N/A Fog Shallow Fog
3:39 AM 66.9 °F - 66.0 °F 97% 30.16 in 2.5 mi Calm Calm - N/A Fog Shallow Fog
3:53 AM 66.9 °F - 66.0 °F 97% 30.15 in 2.0 mi Calm Calm - N/A Fog Shallow Fog
4:33 AM 66.9 °F - 66.0 °F 97% 30.16 in 1.5 mi NNE 3.5 mph - N/A Fog Shallow Fog
4:53 AM 66.9 °F - 66.0 °F 97% 30.15 in 1.0 mi Calm Calm - N/A Fog Shallow Fog
5:04 AM 66.9 °F - 66.0 °F 97% 30.16 in 0.8 mi Calm Calm - N/A Fog Shallow Fog
5:12 AM 66.9 °F - 66.0 °F 97% 30.16 in 1.0 mi Calm Calm - N/A Fog Shallow Fog
5:31 AM 68.0 °F - 66.0 °F 93% 30.16 in 2.0 mi Calm Calm - N/A   Overcast
5:45 AM 66.9 °F - 66.0 °F 97% 30.17 in 0.5 mi Calm Calm - N/A Fog Fog
5:53 AM 66.9 °F - 66.0 °F 97% 30.16 in 0.5 mi Calm Calm - N/A Fog Fog
6:49 AM 66.2 °F - 66.2 °F 100% 30.18 in 0.2 mi WNW 3.5 mph - N/A Fog Fog
6:53 AM 66.9 °F - 66.0 °F 97% 30.17 in 0.2 mi Calm Calm - N/A Fog Fog
7:32 AM 66.9 °F - 66.0 °F 97% 30.18 in 0.2 mi NW 4.6 mph - N/A Fog Fog
7:53 AM 66.9 °F - 66.0 °F 97% 30.18 in 0.2 mi Calm Calm - N/A Fog Fog
8:44 AM 66.9 °F - 66.0 °F 97% 30.19 in 0.5 mi Calm Calm - N/A Fog Fog
8:53 AM 66.9 °F - 66.0 °F 97% 30.18 in 0.8 mi NNE 3.5 mph - N/A   Overcast
9:19 AM 66.9 °F - 66.0 °F 97% 30.19 in 1.5 mi Calm Calm - N/A   Overcast
9:53 AM 68.0 °F - 66.0 °F 93% 30.18 in 2.0 mi Calm Calm - N/A   Overcast
10:17 AM 69.1 °F - 66.0 °F 90% 30.19 in 2.5 mi Calm Calm - N/A   Overcast
10:50 AM 69.8 °F - 66.2 °F 88% 30.19 in 3.0 mi East 4.6 mph - N/A   Overcast
10:53 AM 70.0 °F - 66.0 °F 87% 30.18 in 2.5 mi East 4.6 mph - N/A   Overcast
11:00 AM 70.0 °F - 64.9 °F 84% 30.19 in 3.0 mi Variable 3.5 mph - N/A   Haze
11:53 AM 72.0 °F - 64.9 °F 78% 30.18 in 5.0 mi Calm Calm - N/A   Haze
12:53 PM 73.9 °F - 64.0 °F 71% 30.17 in 10.0 mi Calm Calm - N/A   Mostly Cloudy
1:00 PM 75.9 °F - 64.9 °F 69% 30.18 in 10.0 mi Calm Calm - N/A   Mostly Cloudy
1:53 PM 75.9 °F - 64.9 °F 69% 30.16 in 10.0 mi East 4.6 mph - N/A   Overcast
2:53 PM 78.1 °F - 63.0 °F 60% 30.14 in 10.0 mi North 3.5 mph - N/A   Partly Cloudy
3:53 PM 78.1 °F - 66.0 °F 66% 30.13 in 10.0 mi NW 6.9 mph - N/A   Partly Cloudy
4:53 PM 80.1 °F 81.7 °F 64.0 °F 58% 30.13 in 10.0 mi Variable 4.6 mph - N/A   Mostly Cloudy
5:53 PM 78.1 °F - 64.9 °F 64% 30.13 in 10.0 mi NNE 6.9 mph - N/A   Partly Cloudy
6:53 PM 75.9 °F - 63.0 °F 64% 30.13 in 10.0 mi North 6.9 mph - N/A   Clear
7:53 PM 71.1 °F - 64.0 °F 78% 30.14 in 10.0 mi NNW 4.6 mph - N/A   Clear
8:53 PM 66.0 °F - 62.1 °F 87% 30.15 in 10.0 mi Calm Calm - N/A   Clear
9:53 PM 68.0 °F - 62.1 °F 81% 30.16 in 10.0 mi Calm Calm - N/A   Clear
10:53 PM 64.9 °F - 61.0 °F 87% 30.17 in 10.0 mi Calm Calm - N/A   Scattered Clouds
11:53 PM 68.0 °F - 63.0 °F 84% 30.17 in 10.0 mi Calm Calm - N/A   Mostly Cloudy